Date,TemperatureHighF,TemperatureAvgF,TemperatureLowF,DewpointHighF,DewpointAvgF,DewpointLowF,HumidityHigh,HumidityAvg,HumidityLow,PressureMaxIn,PressureMinIn,WindSpeedMaxMPH,WindSpeedAvgMPH,GustSpeedMaxMPH,PrecipitationSumIn
2013-2-1,25,16,13,8,1,-3,63,51,38,29.29,28.85,14,5,18,0.00
2013-2-2,28,19,10,21,9,-4,86,65,52,29.26,28.94,8,2,11,0.00
2013-2-3,33,23,16,21,12,0,88,66,42,29.06,28.85,8,3,13,0.00
2013-2-4,29,22,14,23,15,0,88,74,56,29.06,28.85,5,2,8,0.00
2013-2-5,37,29,25,28,22,15,94,78,52,28.94,28.82,6,1,9,0.00
2013-2-6,49,30,15,26,16,7,89,60,28,29.29,28.94,9,2,13,0.04
2013-2-7,56,33,14,26,19,7,81,58,28,29.26,28.88,6,2,8,0.17
2013-2-8,42,33,26,38,26,15,96,76,62,29.21,28.73,14,5,26,0.12
2013-2-9,42,28,18,18,14,0,77,56,33,29.38,29.21,10,2,15,0.00
2013-2-10,51,36,15,31,17,0,84,52,27,29.29,28.85,10,2,15,0.00
2013-2-11,59,46,36,45,32,19,98,60,29,28.94,28.70,14,6,20,0.00
2013-2-12,48,36,25,23,19,16,74,52,34,29.09,28.91,11,3,17,0.00
2013-2-13,37,29,23,28,22,18,85,74,59,28.91,28.70,7,1,8,0.00
2013-2-14,39,34,23,37,30,0,98,86,67,28.91,28.82,13,3,17,0.04
2013-2-15,42,33,25,30,24,0,89,70,40,29.09,28.91,10,2,14,0.00
2013-2-16,36,27,19,20,11,3,82,55,30,29.06,28.94,8,3,11,0.00
2013-2-17,32,19,12,13,6,0,77,56,34,29.21,28.97,11,4,17,0.00
2013-2-18,49,30,10,26,11,-2,72,46,29,29.23,28.79,11,3,14,0.00
2013-2-19,50,34,21,39,24,8,90,67,37,28.97,28.64,14,6,23,0.29
2013-2-20,28,21,18,15,8,4,77,57,39,29.21,28.97,12,4,16,0.00
2013-2-21,31,24,20,16,10,0,80,56,42,29.32,29.18,7,3,13,0.00
2013-2-22,42,33,23,38,25,9,95,73,55,29.23,28.91,6,2,9,0.00
2013-2-23,48,37,27,33,26,18,88,64,38,28.97,28.85,7,2,11,0.00
2013-2-24,36,31,26,24,18,13,81,59,42,29.12,28.88,8,2,13,0.00
2013-2-25,51,36,22,26,18,0,82,51,27,29.21,29.00,7,1,8,0.00
2013-2-26,40,36,31,38,27,16,96,72,42,29.03,28.53,0,0,0,0.79
2013-2-27,43,39,34,41,35,0,98,86,70,28.67,28.50,0,0,0,0.29
2013-2-28,38,34,32,32,29,26,94,81,74,28.85,28.59,0,0,0,0.00